Weather History for Denver, CO

Change the Weather History Date:

Sunday, October 27, 2013

  Actual Average Record
Temperature  
Mean Temperature 57 °F 47 °F  
Max Temperature 70 °F 61 °F 80 °F (1950)
Min Temperature 43 °F 33 °F 11 °F (1925)
Degree Days  
Heating Degree Days 8 18  
Month to date heating degree days 427 364  
Since 1 July heating degree days 510 505  
Cooling Degree Days 0 0  
Month to date cooling degree days 0 1  
Year to date cooling degree days 999 765  
Growing Degree Days 6 (Base 50)    
Moisture  
Dew Point 25 °F    
Average Humidity 37    
Maximum Humidity 58    
Minimum Humidity 15    
Precipitation  
Precipitation 0.00 in 0.03 in 0.26 in (1936)
Month to date precipitation 0.70 0.93  
Year to date precipitation 17.06 13.25  
Snow  
Snow 0.00 in - - ()
Month to date snowfall 1.4  
Since 1 July snowfall 1.4  
Since 1 September snowfall 1.4  
Snow Depth 0.00 in    
Sea Level Pressure  
Sea Level Pressure 29.86 in    
Wind  
Wind Speed 8 mph (SW)    
Max Wind Speed 17 mph    
Max Gust Speed 20 mph    
Visibility 10 miles    
Events      
T = Trace of Precipitation, MM = Missing Value Source: NWS Daily Summary

Daily Weather History Graph

Daily Weather History Graph

Search for Another Location

Airport:

Trip Planner

Search our weather history database for the weather conditions in past years. The results will help you decide how hot, cold, wet, or windy it might be!

Date:

Astronomy

Oct. 27, 2013 Rise Set
Actual Time 7:22 AM MDT 6:02 PM MDT
Civil Twilight 6:54 AM MDT 6:29 PM MDT
Nautical Twilight 6:22 AM MDT 7:01 PM MDT
Astronomical Twilight 5:51 AM MDT 7:32 PM MDT
Moon 12:22 AM MDT (10/27) 2:12 PM MDT (10/27)
Length of Visible Light 11h 35m
Length of Day
10h 40m
Last Quarter, 43% of the Moon is Illuminated
Oct 27
Last Quarter
Nov 3
New
Nov 9
First Quarter
Nov 17
Full
Nov 25
Last Quarter

Hourly Weather History & Observations

Time (MDT) Temp. Windchill Dew Point Humidity Pressure Visibility Wind Dir Wind Speed Gust Speed Precip Events Conditions
12:53 AM 44.1 °F 38.6 °F 30.9 °F 60% 30.03 in 10.0 mi SSW 10.4 mph - N/A   Clear
1:53 AM 45.0 °F 39.3 °F 30.9 °F 58% 30.01 in 10.0 mi SW 11.5 mph - N/A   Clear
2:53 AM 45.0 °F 39.7 °F 30.0 °F 56% 29.99 in 10.0 mi SW 10.4 mph - N/A   Clear
3:53 AM 45.0 °F 39.7 °F 28.9 °F 53% 29.97 in 10.0 mi SW 10.4 mph - N/A   Clear
4:53 AM 45.0 °F 39.3 °F 28.0 °F 52% 29.96 in 10.0 mi SSW 11.5 mph - N/A   Clear
5:53 AM 43.0 °F 38.8 °F 27.0 °F 53% 29.97 in 10.0 mi SSW 6.9 mph - N/A   Clear
6:53 AM 44.1 °F 37.7 °F 26.1 °F 49% 29.99 in 10.0 mi SW 12.7 mph - N/A   Clear
7:53 AM 45.0 °F 38.9 °F 26.1 °F 48% 29.99 in 10.0 mi SSW 12.7 mph - N/A   Clear
8:53 AM 51.1 °F - 27.0 °F 39% 29.97 in 10.0 mi SW 10.4 mph - N/A   Clear
9:53 AM 57.9 °F - 28.9 °F 33% 29.92 in 10.0 mi SW 10.4 mph - N/A   Partly Cloudy
10:53 AM 63.0 °F - 26.1 °F 25% 29.88 in 10.0 mi SW 10.4 mph - 0.01 in   Partly Cloudy
11:53 AM 66.9 °F - 19.9 °F 17% 29.86 in 10.0 mi West 3.5 mph - N/A   Partly Cloudy
12:53 PM 68.0 °F - 21.9 °F 17% 29.82 in 10.0 mi NW 9.2 mph - N/A   Partly Cloudy
1:53 PM 68.0 °F - 19.9 °F 16% 29.77 in 10.0 mi WNW 5.8 mph - N/A   Partly Cloudy
2:53 PM 70.0 °F - 24.1 °F 18% 29.74 in 10.0 mi North 6.9 mph - N/A   Scattered Clouds
3:53 PM 69.1 °F - 21.0 °F 16% 29.74 in 10.0 mi NNE 6.9 mph - N/A   Scattered Clouds
4:53 PM 66.9 °F - 24.1 °F 20% 29.74 in 10.0 mi NNE 3.5 mph - N/A   Scattered Clouds
5:53 PM 61.0 °F - 21.0 °F 21% 29.75 in 10.0 mi East 4.6 mph - N/A   Mostly Cloudy
6:53 PM 54.0 °F - 23.0 °F 30% 29.78 in 10.0 mi SE 6.9 mph - N/A   Mostly Cloudy
7:53 PM 48.9 °F - 27.0 °F 43% 29.80 in 10.0 mi SSE 9.2 mph - N/A   Mostly Cloudy
8:53 PM 48.9 °F - 26.1 °F 41% 29.78 in 10.0 mi SSE 8.1 mph - N/A   Mostly Cloudy
9:53 PM 48.9 °F - 25.0 °F 39% 29.75 in 10.0 mi South 10.4 mph - N/A   Mostly Cloudy
10:53 PM 50.0 °F - 25.0 °F 38% 29.74 in 10.0 mi SW 8.1 mph - N/A   Mostly Cloudy
11:53 PM 52.0 °F - 24.1 °F 34% 29.72 in 10.0 mi WSW 6.9 mph - N/A   Scattered Clouds